TimeEDT,TemperatureF,Dew PointF,Humidity,Sea Level PressureIn,VisibilityMPH,Wind Direction,Wind SpeedMPH,Gust SpeedMPH,PrecipitationIn,Events,Conditions,WindDirDegrees,DateUTC
12:54 AM,57.0,51.1,81,29.93,10.0,West,8.1,-,N/A,,Clear,280,2013-08-05 04:54:00
1:54 AM,57.0,50.0,77,29.92,10.0,WNW,9.2,-,N/A,,Clear,300,2013-08-05 05:54:00
2:54 AM,55.0,50.0,83,29.92,10.0,WNW,12.7,-,N/A,,Clear,300,2013-08-05 06:54:00
3:54 AM,55.0,48.9,80,29.93,10.0,WNW,11.5,-,N/A,,Clear,300,2013-08-05 07:54:00
4:54 AM,55.0,48.9,80,29.95,10.0,WNW,13.8,-,N/A,,Clear,290,2013-08-05 08:54:00
5:54 AM,54.0,48.9,83,29.98,10.0,West,9.2,-,N/A,,Clear,280,2013-08-05 09:54:00
6:54 AM,54.0,50.0,86,29.99,10.0,West,10.4,-,N/A,,Clear,280,2013-08-05 10:54:00
7:54 AM,57.0,51.1,81,30.00,10.0,West,13.8,-,N/A,,Clear,280,2013-08-05 11:54:00
8:54 AM,60.1,46.9,62,29.99,10.0,WNW,11.5,26.5,N/A,,Clear,290,2013-08-05 12:54:00
9:54 AM,61.0,41.0,48,30.01,10.0,NNW,15.0,25.3,N/A,,Clear,330,2013-08-05 13:54:00
10:54 AM,63.0,39.9,43,29.99,10.0,NW,17.3,26.5,N/A,,Clear,320,2013-08-05 14:54:00
11:54 AM,64.9,42.1,43,29.99,10.0,NW,19.6,26.5,N/A,,Clear,310,2013-08-05 15:54:00
12:54 PM,68.0,41.0,37,29.99,10.0,NW,19.6,27.6,N/A,,Clear,310,2013-08-05 16:54:00
1:54 PM,70.0,39.0,32,29.99,10.0,NW,12.7,-,N/A,,Clear,310,2013-08-05 17:54:00
2:54 PM,70.0,36.0,29,29.99,10.0,NNW,15.0,24.2,N/A,,Clear,340,2013-08-05 18:54:00
3:54 PM,71.1,39.0,31,29.99,10.0,NW,13.8,26.5,N/A,,Clear,320,2013-08-05 19:54:00
4:54 PM,71.1,41.0,34,29.99,10.0,NW,13.8,19.6,N/A,,Clear,320,2013-08-05 20:54:00
5:54 PM,71.1,39.9,32,30.00,10.0,NW,10.4,-,N/A,,Clear,320,2013-08-05 21:54:00
6:54 PM,69.1,42.1,38,30.01,10.0,NW,8.1,-,N/A,,Clear,320,2013-08-05 22:54:00
7:54 PM,63.0,48.0,58,30.04,10.0,NW,6.9,-,N/A,,Clear,320,2013-08-05 23:54:00
8:54 PM,62.1,46.9,58,30.06,10.0,WNW,3.5,-,N/A,,Clear,290,2013-08-06 00:54:00
9:54 PM,60.1,45.0,57,30.06,10.0,NW,5.8,-,N/A,,Clear,320,2013-08-06 01:54:00
10:54 PM,59.0,45.0,60,30.07,10.0,NNW,4.6,-,N/A,,Clear,330,2013-08-06 02:54:00
11:54 PM,63.0,41.0,45,30.07,10.0,North,5.8,-,N/A,,Clear,360,2013-08-06 03:54:00